Location: Newark
(35.9250°N, 105.0090°W)
Time: 21:17:44
(UTC+00:00)

Hubble Space Telescope - Visible Passes

Search period start: 20 September 2020 00:00
Search period end: 30 September 2020 00:00
Orbit: 536 x 540 km, 28.5° (Epoch: 20 September)

Date Brightness Start Highest point End Pass type
(mag) Time Alt. Az. Time Alt. Az. Time Alt. Az.
25 Sep 3.2 11:01:06 12° SSE 11:01:33 12° SSE 11:03:14 10° SE visible
26 Sep 3.1 10:51:07 14° SSE 10:51:07 14° SSE 10:53:02 10° SE visible
27 Sep 3.2 10:41:06 15° SE 10:41:06 15° SE 10:42:37 10° ESE visible
27 Sep 2.2 12:17:00 10° SW 12:20:32 28° S 12:24:05 10° ESE visible
28 Sep 3.3 10:31:03 14° SE 10:31:03 14° SE 10:32:04 10° ESE visible
28 Sep 2.1 12:06:23 11° WSW 12:09:45 29° S 12:13:19 10° ESE visible
29 Sep 3.6 10:20:59 12° ESE 10:20:59 12° ESE 10:21:28 10° ESE visible
29 Sep 2.1 11:56:19 15° SW 11:58:58 29° S 12:02:32 10° ESE visible
